| time (UTC) | temp C | wind direction | speed KPH | gust KPH | rain 1hr cm | rain 24hr cm | rain mn cm | humidity % | barometer mb |
| 20260510164707 | 21 | 330 | 1.6 | 1.6 | 0.00 | 0.00 | 0.00 | 66 | 1015.7 |
| 20260510164204 | 22 | 313 | 3.2 | 8.0 | 0.00 | 0.00 | 0.00 | 65 | 1015.8 |
| 20260510163659 | 22 | 261 | 1.6 | 9.7 | 0.00 | 0.00 | 0.00 | 64 | 1015.8 |
| 20260510163155 | 22 | 293 | 8.0 | 11.3 | 0.00 | 0.00 | 0.00 | 63 | 1015.8 |
| 20260510162654 | 22 | 274 | 3.2 | 9.7 | 0.00 | 0.00 | 0.00 | 66 | 1015.6 |
| 20260510162152 | 22 | 299 | 3.2 | 4.8 | 0.00 | 0.00 | 0.00 | 65 | 1015.6 |
| 20260510161647 | 22 | 248 | 6.4 | 8.0 | 0.00 | 0.00 | 0.00 | 65 | 1015.5 |
| 20260510161144 | 22 | 301 | 1.6 | 9.7 | 0.00 | 0.00 | 0.00 | 66 | 1015.6 |
| 20260510160641 | 22 | 20 | 4.8 | 8.0 | 0.00 | 0.00 | 0.00 | 66 | 1015.6 |
| 20260510160136 | 22 | 309 | 6.4 | 11.3 | 0.00 | 0.00 | 0.00 | 66 | 1015.4 |
| 20260510155632 | 21 | 334 | 1.6 | 1.6 | 0.00 | 0.00 | 0.00 | 68 | 1015.4 |
| 20260510155128 | 21 | 247 | 11.3 | 14.5 | 0.00 | 0.00 | 0.00 | 66 | 1015.7 |
| 20260510154624 | 21 | 289 | 4.8 | 4.8 | 0.00 | 0.00 | 0.00 | 67 | 1015.5 |
| 20260510154120 | 21 | 270 | 6.4 | 9.7 | 0.00 | 0.00 | 0.00 | 68 | 1015.5 |
| 20260510153615 | 21 | 231 | 6.4 | 9.7 | 0.00 | 0.00 | 0.00 | 67 | 1015.4 |
| 20260510153112 | 21 | 260 | 4.8 | 4.8 | 0.00 | 0.00 | 0.00 | 68 | 1015.5 |
| 20260510152609 | 21 | 212 | 6.4 | 9.7 | 0.00 | 0.00 | 0.00 | 68 | 1015.5 |
| 20260510152105 | 22 | 261 | 6.4 | 11.3 | 0.00 | 0.00 | 0.00 | 66 | 1015.2 |
| 20260510151601 | 22 | 265 | 8.0 | 11.3 | 0.00 | 0.00 | 0.00 | 65 | 1015.2 |
| 20260510151100 | 22 | 279 | 8.0 | 12.9 | 0.00 | 0.00 | 0.00 | 67 | 1015.3 |
| 20260510150554 | 21 | 242 | 8.0 | 17.7 | 0.00 | 0.00 | 0.00 | 70 | 1015.2 |
| 20260510150050 | 21 | 286 | 6.4 | 11.3 | 0.00 | 0.00 | 0.00 | 67 | 1014.7 |
| 20260510145547 | 21 | 282 | 6.4 | 11.3 | 0.00 | 0.00 | 0.00 | 69 | 1014.8 |
| 20260510145043 | 21 | 259 | 3.2 | 9.7 | 0.00 | 0.00 | 0.00 | 68 | 1014.8 |
| 20260510144540 | 21 | 265 | 6.4 | 11.3 | 0.00 | 0.00 | 0.00 | 68 | 1015.0 |
| 20260510144036 | 20 | 230 | 4.8 | 9.7 | 0.00 | 0.00 | 0.00 | 73 | 1015.0 |
| 20260510143531 | 20 | 83 | 4.8 | 8.0 | 0.00 | 0.00 | 0.00 | 70 | 1015.0 |
| 20260510143028 | 20 | 224 | 9.7 | 12.9 | 0.00 | 0.00 | 0.00 | 70 | 1015.0 |
| 20260510142525 | 20 | 276 | 8.0 | 12.9 | 0.00 | 0.00 | 0.00 | 70 | 1015.0 |
| 20260510142022 | 20 | 288 | 6.4 | 12.9 | 0.00 | 0.00 | 0.00 | 71 | 1015.2 |
| 20260510141518 | 20 | 227 | 4.8 | 8.0 | 0.00 | 0.00 | 0.00 | 71 | 1015.0 |
| 20260510141016 | 20 | 279 | 8.0 | 11.3 | 0.00 | 0.00 | 0.00 | 70 | 1015.0 |
| 20260510140512 | 20 | 295 | 3.2 | 4.8 | 0.00 | 0.00 | 0.00 | 71 | 1015.0 |
| 20260510140011 | 20 | 317 | 3.2 | 8.0 | 0.00 | 0.00 | 0.00 | 75 | 1014.8 |
| 20260510135507 | 19 | 209 | 4.8 | 4.8 | 0.00 | 0.00 | 0.00 | 75 | 1015.0 |
| 20260510135004 | 18 | 198 | 6.4 | 8.0 | 0.00 | 0.00 | 0.00 | 75 | 1014.8 |
| 20260510134501 | 18 | 223 | 4.8 | 8.0 | 0.00 | 0.00 | 0.00 | 75 | 1014.9 |
| 20260510133957 | 18 | 327 | 1.6 | 4.8 | 0.00 | 0.00 | 0.00 | 77 | 1014.9 |
| 20260510133453 | 17 | 207 | 4.8 | 4.8 | 0.00 | 0.00 | 0.00 | 78 | 1015.0 |
| 20260510132949 | 17 | 306 | 3.2 | 4.8 | 0.00 | 0.00 | 0.00 | 80 | 1015.0 |
| 20260510132447 | 17 | 340 | 1.6 | 4.8 | 0.00 | 0.00 | 0.00 | 81 | 1014.9 |
| 20260510131943 | 17 | 330 | 1.6 | 3.2 | 0.00 | 0.00 | 0.00 | 81 | 1015.0 |
| 20260510131441 | 17 | 322 | 3.2 | 8.0 | 0.00 | 0.00 | 0.00 | 82 | 1014.9 |
| 20260510130938 | 17 | 318 | 3.2 | 3.2 | 0.00 | 0.00 | 0.00 | 83 | 1015.2 |
| 20260510130434 | 17 | 9 | 3.2 | 4.8 | 0.00 | 0.00 | 0.00 | 83 | 1015.0 |
| 20260510125932 | 16 | 307 | 3.2 | 3.2 | 0.00 | 0.00 | 0.00 | 83 | 1014.9 |
| 20260510125427 | 16 | 315 | 3.2 | 4.8 | 0.00 | 0.00 | 0.00 | 84 | 1015.0 |
| 20260510124925 | 17 | 115 | 3.2 | 3.2 | 0.00 | 0.00 | 0.00 | 83 | 1015.0 |
| 20260510124421 | 16 | 0 | 0.0 | 3.2 | 0.00 | 0.00 | 0.00 | 82 | 1015.0 |
| 20260510123918 | 17 | 25 | 0.0 | 3.2 | 0.00 | 0.00 | 0.00 | 83 | 1014.9 |
| 20260510123413 | 16 | 355 | 0.0 | 1.6 | 0.00 | 0.00 | 0.00 | 85 | 1014.8 |
| 20260510122911 | 15 | 358 | 1.6 | 1.6 | 0.00 | 0.00 | 0.00 | 88 | 1014.7 |
| 20260510122410 | 15 | 5 | 0.0 | 1.6 | 0.00 | 0.00 | 0.00 | 90 | 1014.6 |
| 20260510121907 | 14 | 327 | 3.2 | 3.2 | 0.00 | 0.00 | 0.00 | 91 | 1014.9 |
| 20260510121405 | 13 | 264 | 1.6 | 1.6 | 0.00 | 0.00 | 0.00 | 93 | 1015.0 |
| 20260510120902 | 13 | 305 | 0.0 | 3.2 | 0.00 | 0.00 | 0.00 | 95 | 1014.8 |
| 20260510120400 | 12 | 326 | 1.6 | 4.8 | 0.00 | 0.00 | 0.00 | 96 | 1014.6 |
| 20260510115855 | 12 | 325 | 1.6 | 3.2 | 0.00 | 0.00 | 0.00 | 97 | 1014.8 |
| 20260510115352 | 12 | 321 | 1.6 | 4.8 | 0.00 | 0.00 | 0.00 | 98 | 1014.7 |
| 20260510114848 | 12 | 316 | 4.8 | 8.0 | 0.00 | 0.00 | 0.00 | 99 | 1014.9 |
| 20260510114345 | 11 | 349 | 1.6 | 4.8 | 0.00 | 0.00 | 0.00 | 99 | 1014.8 |
| 20260510113845 | 11 | 264 | 1.6 | 3.2 | 0.00 | 0.00 | 0.00 | 99 | 1014.6 |
| 20260510113342 | 11 | 339 | 1.6 | 3.2 | 0.00 | 0.00 | 0.00 | 99 | 1014.6 |
| 20260510112839 | 11 | 347 | 0.0 | 3.2 | 0.00 | 0.00 | 0.00 | 99 | 1014.2 |
| 20260510112336 | 11 | 345 | 0.0 | 3.2 | 0.00 | 0.00 | 0.00 | 99 | 1014.2 |
| 20260510111832 | 11 | 332 | 0.0 | 0.0 | 0.00 | 0.00 | 0.00 | 99 | 1014.4 |
| 20260510111328 | 12 | 352 | 0.0 | 0.0 | 0.00 | 0.00 | 0.00 | 99 | 1014.2 |
| 20260510110828 | 10 | 359 | 0.0 | 0.0 | 0.00 | 0.00 | 0.00 | 99 | 1014.1 |
| 20260510110326 | 11 | 340 | 0.0 | 0.0 | 0.00 | 0.00 | 0.00 | 99 | 1014.1 |
| 20260510105822 | 10 | 343 | 0.0 | 0.0 | 0.00 | 0.00 | 0.00 | 99 | 1013.9 |
| 20260510105316 | 10 | 352 | 0.0 | 0.0 | 0.00 | 0.00 | 0.00 | 99 | 1013.9 |
| 20260510104813 | 10 | 315 | 1.6 | 1.6 | 0.00 | 0.00 | 0.00 | 99 | 1013.7 |
| 20260510104310 | 10 | 5 | 1.6 | 4.8 | 0.00 | 0.00 | 0.00 | 99 | 1013.6 |
| 20260510103806 | 9 | 25 | 1.6 | 1.6 | 0.00 | 0.00 | 0.00 | 99 | 1013.7 |
| 20260510103303 | 9 | 331 | 1.6 | 1.6 | 0.00 | 0.00 | 0.00 | 99 | 1013.5 |
| 20260510102758 | 9 | 343 | 0.0 | 0.0 | 0.00 | 0.00 | 0.00 | 99 | 1013.9 |
| 20260510102254 | 8 | 317 | 0.0 | 0.0 | 0.00 | 0.00 | 0.00 | 99 | 1013.7 |
| 20260510101751 | 8 | 345 | 0.0 | 0.0 | 0.00 | 0.00 | 0.00 | 99 | 1013.7 |
| 20260510101250 | 9 | 345 | 0.0 | 0.0 | 0.00 | 0.00 | 0.00 | 99 | 1013.9 |
| 20260510100745 | 9 | 324 | 0.0 | 0.0 | 0.00 | 0.00 | 0.00 | 99 | 1013.7 |
| 20260510100243 | 9 | 334 | 0.0 | 0.0 | 0.00 | 0.00 | 0.00 | 99 | 1013.8 |
| 20260510095738 | 9 | 9 | 0.0 | 0.0 | 0.00 | 0.00 | 0.00 | 99 | 1013.8 |
| 20260510095234 | 9 | 327 | 0.0 | 1.6 | 0.00 | 0.00 | 0.00 | 99 | 1013.7 |
| 20260510094733 | 9 | 12 | 1.6 | 1.6 | 0.00 | 0.00 | 0.00 | 99 | 1013.9 |
| 20260510094229 | 9 | 24 | 0.0 | 0.0 | 0.00 | 0.00 | 0.00 | 99 | 1014.1 |
| 20260510093724 | 9 | 358 | 0.0 | 0.0 | 0.00 | 0.00 | 0.00 | 99 | 1014.0 |
| 20260510093222 | 9 | 343 | 0.0 | 0.0 | 0.00 | 0.00 | 0.00 | 99 | 1013.9 |
| 20260510092718 | 9 | 348 | 0.0 | 3.2 | 0.00 | 0.00 | 0.00 | 99 | 1014.0 |
| 20260510092214 | 9 | 335 | 0.0 | 4.8 | 0.00 | 0.00 | 0.00 | 99 | 1014.2 |
| 20260510091710 | 8 | 330 | 0.0 | 3.2 | 0.00 | 0.00 | 0.00 | 99 | 1013.7 |
| 20260510091206 | 8 | 350 | 0.0 | 0.0 | 0.00 | 0.00 | 0.00 | 99 | 1013.4 |
| 20260510090703 | 8 | 348 | 0.0 | 0.0 | 0.00 | 0.00 | 0.00 | 99 | 1013.3 |
| 20260510090200 | 8 | 343 | 0.0 | 0.0 | 0.00 | 0.00 | 0.00 | 99 | 1012.9 |
| 20260510085649 | 8 | 348 | 0.0 | 0.0 | 0.00 | 0.00 | 0.00 | 99 | 1012.6 |
| 20260510085145 | 8 | 344 | 0.0 | 0.0 | 0.00 | 0.00 | 0.00 | 99 | 1012.5 |
| 20260510084641 | 8 | 345 | 0.0 | 0.0 | 0.00 | 0.00 | 0.00 | 99 | 1012.7 |
| 20260510084138 | 8 | 346 | 0.0 | 0.0 | 0.00 | 0.00 | 0.00 | 99 | 1012.6 |
| 20260510083635 | 8 | 355 | 0.0 | 0.0 | 0.00 | 0.00 | 0.00 | 99 | 1012.6 |
| 20260510083132 | 8 | 355 | 0.0 | 0.0 | 0.00 | 0.00 | 0.00 | 99 | 1012.4 |
| 20260510082628 | 8 | 356 | 0.0 | 0.0 | 0.00 | 0.00 | 0.00 | 99 | 1012.7 |
| 20260510082123 | 8 | 357 | 0.0 | 0.0 | 0.00 | 0.00 | 0.00 | 99 | 1012.4 |
| 20260510081617 | 8 | 352 | 0.0 | 0.0 | 0.00 | 0.00 | 0.00 | 99 | 1012.7 |
| 20260510081114 | 8 | 346 | 0.0 | 0.0 | 0.00 | 0.00 | 0.00 | 99 | 1012.9 |
| 20260510080608 | 8 | 344 | 0.0 | 0.0 | 0.00 | 0.00 | 0.00 | 99 | 1012.7 |
| 20260510080105 | 8 | 341 | 0.0 | 0.0 | 0.00 | 0.00 | 0.00 | 99 | 1012.6 |
| 20260510075602 | 8 | 352 | 0.0 | 0.0 | 0.00 | 0.00 | 0.00 | 99 | 1012.7 |
| 20260510075058 | 8 | 343 | 0.0 | 0.0 | 0.00 | 0.00 | 0.00 | 99 | 1012.8 |
| 20260510074556 | 8 | 338 | 0.0 | 0.0 | 0.00 | 0.00 | 0.00 | 99 | 1012.9 |
| 20260510074051 | 8 | 338 | 0.0 | 0.0 | 0.00 | 0.00 | 0.00 | 99 | 1012.7 |
| 20260510073547 | 8 | 344 | 0.0 | 0.0 | 0.00 | 0.00 | 0.00 | 99 | 1012.7 |
| 20260510073045 | 8 | 343 | 0.0 | 0.0 | 0.00 | 0.00 | 0.00 | 99 | 1012.9 |
| 20260510072541 | 8 | 333 | 0.0 | 0.0 | 0.00 | 0.00 | 0.00 | 99 | 1013.0 |
| 20260510072037 | 8 | 340 | 0.0 | 0.0 | 0.00 | 0.00 | 0.00 | 99 | 1013.0 |
| 20260510071533 | 8 | 346 | 0.0 | 0.0 | 0.00 | 0.00 | 0.00 | 99 | 1012.8 |
| 20260510071031 | 8 | 336 | 0.0 | 0.0 | 0.00 | 0.00 | 0.00 | 99 | 1012.6 |
| 20260510070528 | 8 | 305 | 1.6 | 1.6 | 0.00 | 0.00 | 0.00 | 99 | 1012.7 |
| 20260510070025 | 9 | 359 | 0.0 | 3.2 | 0.00 | 0.00 | 0.00 | 99 | 1012.7 |
| 20260510065521 | 9 | 356 | 0.0 | 1.6 | 0.00 | 0.00 | 0.00 | 99 | 1013.0 |
| 20260510065017 | 8 | 334 | 1.6 | 3.2 | 0.00 | 0.00 | 0.00 | 99 | 1013.3 |
| 20260510064514 | 8 | 131 | 4.8 | 8.0 | 0.00 | 0.00 | 0.00 | 99 | 1013.0 |
| 20260510064011 | 7 | 340 | 0.0 | 0.0 | 0.00 | 0.00 | 0.00 | 99 | 1012.3 |
| 20260510063508 | 8 | 7 | 0.0 | 0.0 | 0.00 | 0.00 | 0.00 | 99 | 1012.2 |
| 20260510063005 | 7 | 345 | 0.0 | 0.0 | 0.00 | 0.00 | 0.00 | 99 | 1012.6 |
| 20260510062501 | 7 | 346 | 0.0 | 0.0 | 0.00 | 0.00 | 0.00 | 99 | 1012.2 |
| 20260510061956 | 7 | 347 | 0.0 | 0.0 | 0.00 | 0.00 | 0.00 | 99 | 1012.5 |
| 20260510061453 | 7 | 350 | 0.0 | 0.0 | 0.00 | 0.00 | 0.00 | 99 | 1012.7 |
| 20260510060949 | 7 | 358 | 0.0 | 0.0 | 0.00 | 0.00 | 0.00 | 99 | 1012.5 |
| 20260510060446 | 7 | 356 | 0.0 | 0.0 | 0.00 | 0.00 | 0.00 | 99 | 1012.4 |
| 20260510055942 | 7 | 354 | 0.0 | 0.0 | 0.00 | 0.00 | 0.00 | 99 | 1012.4 |
| 20260510055438 | 7 | 355 | 0.0 | 0.0 | 0.00 | 0.00 | 0.00 | 99 | 1012.4 |
| 20260510054937 | 7 | 349 | 0.0 | 0.0 | 0.00 | 0.00 | 0.00 | 99 | 1012.5 |
| 20260510054431 | 7 | 350 | 0.0 | 0.0 | 0.00 | 0.00 | 0.00 | 99 | 1012.2 |
| 20260510053926 | 7 | 346 | 0.0 | 0.0 | 0.00 | 0.00 | 0.00 | 99 | 1012.3 |
| 20260510053422 | 7 | 346 | 0.0 | 0.0 | 0.00 | 0.00 | 0.00 | 99 | 1012.2 |
| 20260510052919 | 7 | 339 | 0.0 | 0.0 | 0.00 | 0.00 | 0.00 | 99 | 1012.1 |
| 20260510052415 | 8 | 346 | 0.0 | 0.0 | 0.00 | 0.00 | 0.00 | 99 | 1012.1 |
| 20260510051911 | 7 | 349 | 0.0 | 0.0 | 0.00 | 0.00 | 0.00 | 99 | 1012.2 |
| 20260510051408 | 7 | 349 | 0.0 | 0.0 | 0.00 | 0.00 | 0.00 | 99 | 1012.1 |
| 20260510050904 | 8 | 0 | 0.0 | 0.0 | 0.00 | 0.00 | 0.00 | 99 | 1012.1 |
| 20260510050401 | 8 | 356 | 0.0 | 1.6 | 0.00 | 0.00 | 0.00 | 99 | 1012.1 |
| 20260510045858 | 8 | 349 | 0.0 | 0.0 | 0.00 | 0.00 | 0.00 | 99 | 1012.2 |
| 20260510045355 | 8 | 342 | 0.0 | 0.0 | 0.00 | 0.00 | 0.00 | 99 | 1012.3 |
| 20260510044852 | 8 | 352 | 0.0 | 0.0 | 0.00 | 0.00 | 0.00 | 99 | 1012.4 |
| 20260510044349 | 8 | 349 | 0.0 | 0.0 | 0.00 | 0.00 | 0.00 | 99 | 1012.3 |
| 20260510043845 | 8 | 348 | 0.0 | 0.0 | 0.00 | 0.00 | 0.00 | 99 | 1012.3 |
| 20260510043341 | 8 | 359 | 0.0 | 0.0 | 0.00 | 0.00 | 0.00 | 99 | 1012.2 |
| 20260510042839 | 8 | 352 | 0.0 | 0.0 | 0.00 | 0.00 | 0.00 | 99 | 1012.1 |
| 20260510042335 | 8 | 347 | 0.0 | 0.0 | 0.00 | 0.00 | 0.00 | 99 | 1012.3 |
| 20260510041831 | 8 | 356 | 0.0 | 0.0 | 0.00 | 0.00 | 0.00 | 99 | 1012.1 |
| 20260510041329 | 8 | 348 | 0.0 | 0.0 | 0.00 | 0.00 | 0.00 | 99 | 1012.4 |
| 20260510040826 | 8 | 356 | 0.0 | 0.0 | 0.00 | 0.00 | 0.00 | 99 | 1012.2 |
| 20260510040322 | 8 | 352 | 0.0 | 0.0 | 0.00 | 0.00 | 0.00 | 99 | 1012.2 |
| 20260510035818 | 8 | 345 | 0.0 | 0.0 | 0.00 | 0.20 | 0.20 | 99 | 1012.3 |
| 20260510035314 | 9 | 349 | 0.0 | 0.0 | 0.00 | 0.20 | 0.20 | 99 | 1012.4 |
| 20260510034810 | 9 | 346 | 0.0 | 0.0 | 0.00 | 0.20 | 0.20 | 99 | 1012.2 |
| 20260510034308 | 9 | 347 | 0.0 | 0.0 | 0.00 | 0.20 | 0.20 | 99 | 1012.3 |
| 20260510033804 | 9 | 351 | 0.0 | 0.0 | 0.00 | 0.20 | 0.20 | 99 | 1012.1 |
| 20260510033301 | 10 | 340 | 0.0 | 0.0 | 0.00 | 0.20 | 0.20 | 99 | 1012.5 |
| 20260510032757 | 10 | 346 | 0.0 | 0.0 | 0.00 | 0.20 | 0.20 | 99 | 1012.4 |
| 20260510032254 | 10 | 6 | 0.0 | 1.6 | 0.00 | 0.20 | 0.20 | 98 | 1012.4 |
| 20260510031749 | 9 | 346 | 0.0 | 0.0 | 0.00 | 0.20 | 0.20 | 98 | 1012.3 |
| 20260510031245 | 10 | 347 | 0.0 | 0.0 | 0.00 | 0.20 | 0.20 | 98 | 1012.3 |
| 20260510030739 | 10 | 347 | 0.0 | 0.0 | 0.00 | 0.20 | 0.20 | 98 | 1012.1 |
| 20260510030237 | 10 | 342 | 0.0 | 0.0 | 0.00 | 0.20 | 0.20 | 98 | 1012.4 |
| 20260510025734 | 10 | 346 | 0.0 | 0.0 | 0.00 | 0.20 | 0.20 | 97 | 1012.3 |
| 20260510025232 | 10 | 347 | 0.0 | 0.0 | 0.00 | 0.20 | 0.20 | 97 | 1012.4 |
| 20260510024728 | 10 | 349 | 0.0 | 0.0 | 0.00 | 0.20 | 0.20 | 97 | 1012.4 |
| 20260510024225 | 10 | 350 | 0.0 | 0.0 | 0.00 | 0.20 | 0.20 | 97 | 1012.3 |
| 20260510023720 | 10 | 352 | 0.0 | 0.0 | 0.00 | 0.20 | 0.20 | 97 | 1012.2 |
| 20260510023217 | 10 | 351 | 0.0 | 0.0 | 0.00 | 0.20 | 0.20 | 97 | 1012.2 |
| 20260510022713 | 10 | 348 | 0.0 | 0.0 | 0.00 | 0.20 | 0.20 | 97 | 1012.0 |
| 20260510022203 | 10 | 352 | 0.0 | 0.0 | 0.00 | 0.20 | 0.20 | 96 | 1011.8 |
| 20260510021658 | 10 | 354 | 0.0 | 0.0 | 0.00 | 0.20 | 0.20 | 96 | 1011.7 |
| 20260510021155 | 11 | 348 | 0.0 | 0.0 | 0.00 | 0.20 | 0.20 | 96 | 1011.8 |
| 20260510020650 | 11 | 354 | 0.0 | 0.0 | 0.00 | 0.20 | 0.20 | 96 | 1011.7 |
| 20260510020145 | 11 | 350 | 0.0 | 0.0 | 0.00 | 0.20 | 0.20 | 95 | 1011.7 |
| 20260510015641 | 11 | 348 | 0.0 | 0.0 | 0.00 | 0.20 | 0.20 | 95 | 1011.9 |
| 20260510015139 | 11 | 340 | 0.0 | 0.0 | 0.00 | 0.20 | 0.20 | 94 | 1011.8 |
| 20260510014638 | 11 | 352 | 0.0 | 0.0 | 0.00 | 0.20 | 0.20 | 94 | 1011.7 |
| 20260510014136 | 11 | 350 | 0.0 | 0.0 | 0.00 | 0.20 | 0.20 | 94 | 1011.7 |
| 20260510013631 | 11 | 356 | 0.0 | 0.0 | 0.00 | 0.20 | 0.20 | 93 | 1011.7 |
| 20260510013126 | 11 | 356 | 0.0 | 0.0 | 0.00 | 0.20 | 0.20 | 93 | 1011.8 |
| 20260510012621 | 12 | 352 | 0.0 | 0.0 | 0.00 | 0.20 | 0.20 | 92 | 1011.4 |
| 20260510012117 | 12 | 348 | 0.0 | 0.0 | 0.00 | 0.20 | 0.20 | 92 | 1011.6 |
| 20260510011617 | 11 | 354 | 0.0 | 0.0 | 0.00 | 0.20 | 0.20 | 90 | 1011.6 |
| 20260510011113 | 12 | 12 | 0.0 | 0.0 | 0.00 | 0.20 | 0.20 | 89 | 1011.3 |
| 20260510010609 | 12 | 352 | 0.0 | 0.0 | 0.00 | 0.20 | 0.20 | 89 | 1011.3 |
| 20260510010107 | 13 | 352 | 0.0 | 0.0 | 0.00 | 0.20 | 0.20 | 88 | 1011.3 |
| 20260510005602 | 13 | 352 | 0.0 | 0.0 | 0.00 | 0.20 | 0.20 | 88 | 1011.0 |
| 20260510005100 | 13 | 354 | 0.0 | 1.6 | 0.00 | 0.20 | 0.20 | 88 | 1011.0 |
| 20260510004557 | 13 | 2 | 0.0 | 0.0 | 0.00 | 0.20 | 0.20 | 88 | 1011.0 |
| 20260510004050 | 14 | 12 | 0.0 | 1.6 | 0.00 | 0.20 | 0.20 | 86 | 1010.9 |
| 20260510003546 | 14 | 355 | 0.0 | 0.0 | 0.00 | 0.20 | 0.20 | 85 | 1011.1 |
| 20260510003042 | 14 | 357 | 0.0 | 0.0 | 0.00 | 0.20 | 0.20 | 85 | 1011.0 |
| 20260510002537 | 15 | 355 | 0.0 | 0.0 | 0.00 | 0.20 | 0.20 | 84 | 1010.9 |
| 20260510002034 | 15 | 358 | 0.0 | 0.0 | 0.00 | 0.20 | 0.20 | 83 | 1011.0 |
| 20260510001531 | 15 | 356 | 0.0 | 0.0 | 0.00 | 0.20 | 0.20 | 82 | 1010.9 |
| 20260510001030 | 16 | 354 | 0.0 | 0.0 | 0.00 | 0.20 | 0.20 | 80 | 1010.8 |
| 20260510000524 | 16 | 0 | 0.0 | 0.0 | 0.00 | 0.20 | 0.20 | 80 | 1010.6 |
| 20260510000022 | 16 | 356 | 0.0 | 0.0 | 0.00 | 0.20 | 0.20 | 79 | 1010.8 |
| 20260509235518 | 16 | 356 | 0.0 | 0.0 | 0.00 | 0.20 | 0.20 | 78 | 1010.6 |
| 20260509235016 | 16 | 52 | 1.6 | 1.6 | 0.00 | 0.20 | 0.20 | 78 | 1010.6 |
| 20260509234511 | 16 | 12 | 0.0 | 0.0 | 0.00 | 0.20 | 0.20 | 76 | 1010.4 |
| 20260509234010 | 17 | 352 | 0.0 | 1.6 | 0.00 | 0.20 | 0.20 | 76 | 1010.4 |
| 20260509233506 | 17 | 8 | 1.6 | 3.2 | 0.00 | 0.20 | 0.20 | 75 | 1010.4 |
| 20260509233002 | 17 | 350 | 1.6 | 3.2 | 0.00 | 0.20 | 0.20 | 73 | 1010.6 |
| 20260509232500 | 17 | 329 | 1.6 | 3.2 | 0.00 | 0.20 | 0.20 | 73 | 1010.3 |
| 20260509231956 | 17 | 354 | 0.0 | 1.6 | 0.00 | 0.20 | 0.20 | 72 | 1010.6 |
| 20260509231453 | 17 | 9 | 1.6 | 3.2 | 0.00 | 0.20 | 0.20 | 72 | 1010.4 |
| 20260509230951 | 17 | 23 | 1.6 | 3.2 | 0.00 | 0.20 | 0.20 | 71 | 1010.6 |
| 20260509230447 | 17 | 7 | 1.6 | 3.2 | 0.00 | 0.20 | 0.20 | 72 | 1010.7 |
| 20260509225943 | 18 | 18 | 3.2 | 4.8 | 0.00 | 0.20 | 0.20 | 70 | 1010.7 |
| 20260509225440 | 18 | 58 | 3.2 | 4.8 | 0.00 | 0.20 | 0.20 | 69 | 1010.6 |
| 20260509224936 | 18 | 49 | 1.6 | 3.2 | 0.00 | 0.20 | 0.20 | 68 | 1010.6 |
| 20260509224431 | 18 | 340 | 0.0 | 1.6 | 0.00 | 0.20 | 0.20 | 68 | 1010.4 |
| 20260509223929 | 18 | 323 | 1.6 | 1.6 | 0.00 | 0.20 | 0.20 | 65 | 1010.6 |
| 20260509223425 | 18 | 34 | 3.2 | 4.8 | 0.00 | 0.20 | 0.20 | 66 | 1010.8 |
| 20260509222923 | 18 | 354 | 0.0 | 3.2 | 0.00 | 0.20 | 0.20 | 66 | 1010.7 |
| 20260509222418 | 18 | 103 | 4.8 | 4.8 | 0.00 | 0.20 | 0.20 | 67 | 1010.8 |
| 20260509221914 | 18 | 36 | 4.8 | 4.8 | 0.00 | 0.20 | 0.20 | 69 | 1010.8 |
| 20260509221411 | 18 | 350 | 1.6 | 3.2 | 0.00 | 0.20 | 0.20 | 69 | 1010.8 |
| 20260509220906 | 18 | 39 | 8.0 | 9.7 | 0.00 | 0.20 | 0.20 | 69 | 1010.8 |
| 20260509220402 | 18 | 27 | 1.6 | 3.2 | 0.00 | 0.20 | 0.20 | 70 | 1010.4 |
| 20260509215858 | 18 | 30 | 3.2 | 4.8 | 0.00 | 0.20 | 0.20 | 70 | 1010.6 |
| 20260509215354 | 18 | 15 | 4.8 | 4.8 | 0.00 | 0.20 | 0.20 | 69 | 1010.4 |
| 20260509214852 | 18 | 168 | 3.2 | 8.0 | 0.00 | 0.20 | 0.20 | 70 | 1010.4 |
| 20260509214349 | 18 | 41 | 6.4 | 8.0 | 0.00 | 0.20 | 0.20 | 69 | 1010.7 |
| 20260509213846 | 19 | 356 | 0.0 | 1.6 | 0.00 | 0.20 | 0.20 | 67 | 1010.8 |
| 20260509213341 | 18 | 16 | 3.2 | 9.7 | 0.00 | 0.20 | 0.20 | 68 | 1010.8 |
| 20260509212839 | 19 | 354 | 8.0 | 9.7 | 0.00 | 0.20 | 0.20 | 67 | 1010.8 |
| 20260509212336 | 18 | 334 | 0.0 | 1.6 | 0.00 | 0.20 | 0.20 | 68 | 1010.8 |
| 20260509211832 | 18 | 342 | 0.0 | 4.8 | 0.00 | 0.20 | 0.20 | 70 | 1010.9 |
| 20260509211328 | 18 | 19 | 1.6 | 1.6 | 0.00 | 0.20 | 0.20 | 69 | 1010.9 |
| 20260509210825 | 18 | 349 | 0.0 | 0.0 | 0.00 | 0.20 | 0.20 | 66 | 1011.2 |
| 20260509210322 | 18 | 349 | 0.0 | 0.0 | 0.00 | 0.20 | 0.20 | 68 | 1011.4 |
| 20260509205822 | 17 | 350 | 0.0 | 0.0 | 0.00 | 0.20 | 0.20 | 67 | 1011.2 |
| 20260509205317 | 17 | 10 | 1.6 | 3.2 | 0.00 | 0.20 | 0.20 | 67 | 1011.0 |
| 20260509204814 | 17 | 346 | 0.0 | 1.6 | 0.00 | 0.20 | 0.20 | 68 | 1011.3 |
| 20260509204310 | 17 | 357 | 0.0 | 1.6 | 0.00 | 0.20 | 0.20 | 70 | 1011.0 |
| 20260509203806 | 17 | 354 | 0.0 | 0.0 | 0.00 | 0.20 | 0.20 | 71 | 1010.8 |
| 20260509203303 | 17 | 354 | 1.6 | 3.2 | 0.00 | 0.20 | 0.20 | 70 | 1011.2 |
| 20260509202759 | 17 | 2 | 0.0 | 1.6 | 0.00 | 0.20 | 0.20 | 69 | 1011.1 |
| 20260509202256 | 17 | 334 | 0.0 | 3.2 | 0.00 | 0.20 | 0.20 | 70 | 1011.1 |
| 20260509201750 | 17 | 46 | 1.6 | 3.2 | 0.00 | 0.20 | 0.20 | 70 | 1010.8 |
| 20260509201247 | 17 | 33 | 0.0 | 1.6 | 0.00 | 0.20 | 0.20 | 68 | 1010.8 |
| 20260509200743 | 17 | 36 | 1.6 | 3.2 | 0.00 | 0.20 | 0.20 | 68 | 1011.1 |
| 20260509200238 | 18 | 1 | 1.6 | 1.6 | 0.00 | 0.20 | 0.20 | 68 | 1011.2 |
| 20260509195735 | 17 | 356 | 0.0 | 1.6 | 0.00 | 0.20 | 0.20 | 71 | 1011.1 |
| 20260509195230 | 17 | 23 | 0.0 | 1.6 | 0.00 | 0.20 | 0.20 | 69 | 1011.2 |
| 20260509194729 | 17 | 61 | 3.2 | 3.2 | 0.00 | 0.20 | 0.20 | 68 | 1011.1 |
| 20260509194226 | 17 | 6 | 4.8 | 4.8 | 0.00 | 0.20 | 0.20 | 69 | 1011.4 |
| 20260509193723 | 18 | 5 | 0.0 | 4.8 | 0.00 | 0.20 | 0.20 | 67 | 1011.5 |
| 20260509193218 | 18 | 343 | 0.0 | 3.2 | 0.00 | 0.20 | 0.20 | 68 | 1011.3 |
| 20260509192715 | 18 | 159 | 3.2 | 4.8 | 0.00 | 0.20 | 0.20 | 67 | 1011.4 |
| 20260509192215 | 18 | 27 | 1.6 | 4.8 | 0.00 | 0.20 | 0.20 | 67 | 1011.2 |
| 20260509191710 | 18 | 352 | 0.0 | 3.2 | 0.00 | 0.20 | 0.20 | 67 | 1011.5 |
| 20260509191207 | 18 | 352 | 8.0 | 9.7 | 0.00 | 0.20 | 0.20 | 67 | 1011.4 |
| 20260509190703 | 17 | 347 | 1.6 | 3.2 | 0.00 | 0.20 | 0.20 | 70 | 1011.7 |
| 20260509190200 | 17 | 346 | 3.2 | 4.8 | 0.00 | 0.20 | 0.20 | 71 | 1011.7 |
| 20260509185658 | 17 | 38 | 3.2 | 11.3 | 0.00 | 0.20 | 0.20 | 71 | 1011.6 |
| 20260509185154 | 18 | 28 | 0.0 | 8.0 | 0.00 | 0.20 | 0.20 | 71 | 1011.3 |
| 20260509184652 | 18 | 342 | 1.6 | 4.8 | 0.00 | 0.20 | 0.20 | 73 | 1011.6 |
| 20260509184148 | 17 | 334 | 0.0 | 1.6 | 0.00 | 0.20 | 0.20 | 71 | 1011.7 |
| 20260509183645 | 17 | 356 | 1.6 | 4.8 | 0.00 | 0.20 | 0.20 | 73 | 1011.7 |
| 20260509183140 | 17 | 305 | 1.6 | 3.2 | 0.00 | 0.20 | 0.20 | 72 | 1011.8 |
| 20260509182636 | 17 | 18 | 3.2 | 3.2 | 0.00 | 0.20 | 0.20 | 72 | 1012.1 |
| 20260509182134 | 17 | 53 | 3.2 | 3.2 | 0.00 | 0.20 | 0.20 | 75 | 1012.1 |
| 20260509181632 | 16 | 335 | 1.6 | 3.2 | 0.00 | 0.20 | 0.20 | 75 | 1012.3 |
| 20260509181129 | 16 | 236 | 3.2 | 3.2 | 0.00 | 0.20 | 0.20 | 76 | 1012.4 |
| 20260509180626 | 16 | 113 | 4.8 | 4.8 | 0.00 | 0.20 | 0.20 | 75 | 1012.4 |
| 20260509180122 | 16 | 355 | 0.0 | 4.8 | 0.00 | 0.20 | 0.20 | 79 | 1012.6 |
| 20260509175617 | 16 | 144 | 4.8 | 4.8 | 0.00 | 0.20 | 0.20 | 76 | 1012.6 |
| 20260509175114 | 16 | 102 | 3.2 | 8.0 | 0.00 | 0.20 | 0.20 | 78 | 1012.7 |
| 20260509174605 | 16 | 123 | 8.0 | 11.3 | 0.00 | 0.20 | 0.20 | 75 | 1012.7 |
| 20260509174101 | 15 | 336 | 1.6 | 4.8 | 0.00 | 0.20 | 0.20 | 78 | 1012.7 |
| 20260509173556 | 15 | 235 | 3.2 | 3.2 | 0.00 | 0.20 | 0.20 | 77 | 1012.5 |
| 20260509173052 | 15 | 244 | 3.2 | 4.8 | 0.00 | 0.20 | 0.20 | 78 | 1012.7 |
| 20260509172549 | 15 | 39 | 0.0 | 1.6 | 0.00 | 0.20 | 0.20 | 80 | 1013.1 |
| 20260509172045 | 15 | 260 | 3.2 | 8.0 | 0.00 | 0.20 | 0.20 | 79 | 1013.1 |
| 20260509171541 | 15 | 339 | 0.0 | 1.6 | 0.00 | 0.20 | 0.20 | 79 | 1012.9 |
| 20260509171038 | 15 | 353 | 0.0 | 1.6 | 0.00 | 0.20 | 0.20 | 80 | 1012.6 |
| 20260509170533 | 15 | 349 | 0.0 | 4.8 | 0.00 | 0.20 | 0.20 | 80 | 1012.6 |
| 20260509170029 | 14 | 2 | 1.6 | 3.2 | 0.00 | 0.20 | 0.20 | 82 | 1012.6 |
| 20260509165528 | 15 | 354 | 1.6 | 3.2 | 0.00 | 0.20 | 0.20 | 81 | 1012.7 |
| 20260509165024 | 15 | 44 | 3.2 | 4.8 | 0.00 | 0.20 | 0.20 | 80 | 1012.8 |